{"data":{"norad_id":58827,"intl_designator":"2024-017B","name":"STARLINK-31271","alt_names":[],"object_type":"PAYLOAD","status":"ACTIVE","operator":null,"country":"US","launch_date":"2024-01-24","launch_site_code":"AFWTR","launch_vehicle":null,"mission":null,"orbit_class":"UNKNOWN","rcs_meters":null,"size_class":null,"mass_kg":null,"dimensions":null,"purposes":["comms"],"wikipedia_slug":null,"has_3d_model":false,"image_url":null,"decayed_at":null,"tle_current":{"epoch":"2026-09-20T13:41:21.309792Z","epoch_age_seconds":146532,"freshness":"FRESH","line1":"1 58827U 24017B   26263.57038553  .00023643  00000+0  70863-3 0  9993","line2":"2 58827  53.1594  17.6871 0001051  84.6917 275.4206 15.34401581149913","mean_motion":15.34401581,"eccentricity":0.0001051,"inclination_deg":53.1594,"raan_deg":17.6871,"arg_perigee_deg":84.6917,"mean_anomaly_deg":275.4206,"bstar":0.00070863,"rev_number":14991,"period_min":93.847661383503,"perigee_km":461.97956933059,"apogee_km":463.41751296133,"semimajor_km":6840.835541146,"source":"CELESTRAK","updated_at":"2026-09-21T09:00:33.982892Z"}}}